DRAGON CRS-31

Last updated on Wed Dec 18 2024 00:02:09 GMT+0000 (Coordinated Universal Time)

1 61791U 24200A 24352.56839880 .00018876 00000+0 32960-3 0 9997 2 61791 51.6381 126.8217 0007666 351.3092 8.7763 15.50685422 6280
UTC large
Height (km)
Speed (km/s)
/
Latitude / Longitude
Inclination (degrees)
Orbital Period (minutes)
Azimuth
Elevation
Range (km)
Doppler Factor

Next 0 passes for location: London (51.5072 / 0.1276)

Sorry there are no passes over London.
DRAGON CRS-31